DAL11 KSLC-KEGE

Flight info

Callsign DAL11
Flight time 0h 50m
Altitude 33000
Route RUGGD3 PERTY HYPPE AAVON1
Aircraft B38M/M-SDE1FGHILORVWXY/HB1

Departure

Time 2026-04-22 17:38
Airport Salt Lake City International Airport (KSLC)

Arrival

Time 2026-04-22 18:28
Airport Eagle County Regional Airport (KEGE)
Time Latitude Longitude Altitude Speed Heading
2026-04-22 17:26 40.78670 -111.98191 4229 ft 2 kts 174°
2026-04-22 17:26 40.78681 -111.98193 4229 ft 0 kts 174°
2026-04-22 17:27 40.78695 -111.98196 4229 ft 2 kts 154°
2026-04-22 17:27 40.78707 -111.98206 4229 ft 2 kts 135°
2026-04-22 17:27 40.78716 -111.98222 4229 ft 2 kts 115°
2026-04-22 17:27 40.78721 -111.98241 4229 ft 2 kts 95°
2026-04-22 17:28 40.78721 -111.98252 4229 ft 1 kts 84°
2026-04-22 17:28 40.78721 -111.98258 4229 ft 0 kts 84°
2026-04-22 17:28 40.78721 -111.98255 4229 ft 0 kts 84°
2026-04-22 17:29 40.78721 -111.98249 4229 ft 1 kts 84°
2026-04-22 17:29 40.78721 -111.98247 4229 ft 0 kts 84°
2026-04-22 17:29 40.78722 -111.98238 4229 ft 3 kts 84°
2026-04-22 17:29 40.78725 -111.98193 4229 ft 5 kts 85°
2026-04-22 17:30 40.78728 -111.98132 4229 ft 5 kts 85°
2026-04-22 17:30 40.78731 -111.98081 4229 ft 6 kts 85°
2026-04-22 17:30 40.78732 -111.98074 4229 ft 7 kts 86°
2026-04-22 17:31 40.78735 -111.98009 4229 ft 7 kts 86°
2026-04-22 17:31 40.78739 -111.97937 4229 ft 7 kts 85°
2026-04-22 17:31 40.78744 -111.97865 4229 ft 8 kts 85°
2026-04-22 17:31 40.78749 -111.97790 4229 ft 8 kts 84°
2026-04-22 17:32 40.78755 -111.97714 4229 ft 8 kts 89°
2026-04-22 17:32 40.78706 -111.97678 4230 ft 11 kts 172°
2026-04-22 17:32 40.78612 -111.97666 4230 ft 13 kts 174°
2026-04-22 17:32 40.78516 -111.97655 4230 ft 14 kts 175°
2026-04-22 17:33 40.78447 -111.97647 4230 ft 14 kts 175°
2026-04-22 17:33 40.78318 -111.97630 4231 ft 12 kts 175°
2026-04-22 17:33 40.78227 -111.97620 4231 ft 13 kts 175°
2026-04-22 17:33 40.78140 -111.97611 4231 ft 11 kts 175°
2026-04-22 17:34 40.78064 -111.97604 4231 ft 11 kts 174°
2026-04-22 17:34 40.77980 -111.97592 4231 ft 12 kts 174°
2026-04-22 17:34 40.77895 -111.97551 4232 ft 13 kts 152°
2026-04-22 17:34 40.77805 -111.97520 4232 ft 12 kts 176°
2026-04-22 17:35 40.77722 -111.97514 4232 ft 11 kts 175°
2026-04-22 17:35 40.77649 -111.97504 4232 ft 10 kts 174°
2026-04-22 17:35 40.77582 -111.97493 4232 ft 9 kts 164°
2026-04-22 17:35 40.77556 -111.97431 4232 ft 8 kts 90°
2026-04-22 17:36 40.77563 -111.97354 4233 ft 7 kts 76°
2026-04-22 17:36 40.77604 -111.97331 4232 ft 3 kts 356°
2026-04-22 17:36 40.77609 -111.97331 4232 ft 1 kts 355°
2026-04-22 17:36 40.77619 -111.97332 4232 ft 4 kts 355°
2026-04-22 17:37 40.77854 -111.97360 4232 ft 69 kts 353°
2026-04-22 17:37 40.78552 -111.97439 4230 ft 131 kts 353°
2026-04-22 17:37 40.79636 -111.97593 4232 ft 177 kts 355°
2026-04-22 17:37 40.80903 -111.97692 4780 ft 180 kts 350°
2026-04-22 17:38 40.82183 -111.97855 5438 ft 187 kts 346°
2026-04-22 17:38 40.83373 -111.98122 6336 ft 174 kts 342°
2026-04-22 17:38 40.84611 -111.98335 6777 ft 187 kts 339°
2026-04-22 17:38 40.85686 -111.99204 7271 ft 181 kts 300°
2026-04-22 17:39 40.86337 -112.00575 8005 ft 174 kts 292°
2026-04-22 17:39 40.86840 -112.02007 8625 ft 175 kts 286°
2026-04-22 17:39 40.88338 -112.04794 9573 ft 210 kts 318°
2026-04-22 17:40 40.89671 -112.05776 10171 ft 221 kts 327°
2026-04-22 17:40 40.91060 -112.06657 10706 ft 233 kts 328°
2026-04-22 17:40 40.92608 -112.07630 10934 ft 259 kts 329°
2026-04-22 17:40 40.94286 -112.08684 11591 ft 266 kts 327°
2026-04-22 17:41 40.95821 -112.10151 11864 ft 279 kts 304°
2026-04-22 17:41 40.96875 -112.12306 12396 ft 287 kts 298°
2026-04-22 17:41 40.98192 -112.14397 12790 ft 311 kts 317°
2026-04-22 17:41 41.00219 -112.15691 13190 ft 340 kts 345°
2026-04-22 17:42 41.02664 -112.15620 13606 ft 364 kts 12°
2026-04-22 17:42 41.04962 -112.14102 13974 ft 385 kts 39°
2026-04-22 17:42 41.06203 -112.12354 14237 ft 396 kts 56°
2026-04-22 17:42 41.07359 -112.07788 15158 ft 397 kts 89°
2026-04-22 17:43 41.07144 -112.04181 15833 ft 396 kts 104°
2026-04-22 17:43 41.06422 -112.00650 16491 ft 398 kts 110°
2026-04-22 17:43 41.05531 -111.97204 17218 ft 398 kts 112°
2026-04-22 17:43 41.04592 -111.93755 17898 ft 401 kts 112°
2026-04-22 17:44 41.03640 -111.90231 18546 ft 404 kts 111°
2026-04-22 17:44 41.02713 -111.86717 19134 ft 408 kts 111°
2026-04-22 17:44 41.01790 -111.83142 19656 ft 414 kts 111°
2026-04-22 17:44 41.00864 -111.79498 20206 ft 419 kts 110°
2026-04-22 17:45 40.99940 -111.75829 20800 ft 422 kts 110°
2026-04-22 17:45 40.98997 -111.72065 21242 ft 429 kts 110°
2026-04-22 17:45 40.98057 -111.68311 21785 ft 433 kts 110°
2026-04-22 17:45 40.97104 -111.64507 22213 ft 439 kts 111°
2026-04-22 17:46 40.96132 -111.60634 22688 ft 444 kts 111°
2026-04-22 17:46 40.95139 -111.56686 23097 ft 452 kts 111°
2026-04-22 17:46 40.94146 -111.52744 23565 ft 456 kts 112°
2026-04-22 17:46 40.93136 -111.48746 23946 ft 462 kts 112°
2026-04-22 17:47 40.92101 -111.44658 24496 ft 463 kts 112°
2026-04-22 17:47 40.91159 -111.40536 24794 ft 473 kts 108°
2026-04-22 17:47 40.90418 -111.36242 25244 ft 479 kts 105°
2026-04-22 17:47 40.89811 -111.31853 25631 ft 485 kts 104°
2026-04-22 17:48 40.89449 -111.28896 25793 ft 490 kts 104°
2026-04-22 17:48 40.88771 -111.22950 26284 ft 495 kts 104°
2026-04-22 17:48 40.88267 -111.18391 26716 ft 498 kts 103°
2026-04-22 17:48 40.87768 -111.13891 27159 ft 500 kts 104°
2026-04-22 17:49 40.87259 -111.09375 27744 ft 498 kts 104°
2026-04-22 17:49 40.86736 -111.04803 28308 ft 497 kts 105°
2026-04-22 17:49 40.86206 -111.00264 28812 ft 497 kts 105°
2026-04-22 17:49 40.85676 -110.95797 29350 ft 496 kts 105°
2026-04-22 17:50 40.85135 -110.91270 29857 ft 495 kts 106°
2026-04-22 17:50 40.84595 -110.86807 30410 ft 494 kts 105°
2026-04-22 17:50 40.84052 -110.82339 30965 ft 492 kts 105°
2026-04-22 17:50 40.83504 -110.77842 31589 ft 488 kts 105°
2026-04-22 17:51 40.82962 -110.73423 32193 ft 484 kts 105°
2026-04-22 17:51 40.82428 -110.69057 32741 ft 481 kts 105°
2026-04-22 17:51 40.81881 -110.64646 32897 ft 486 kts 105°
2026-04-22 17:52 40.80752 -110.55685 32915 ft 505 kts 105°
2026-04-22 17:52 40.79570 -110.46316 32918 ft 521 kts 105°
2026-04-22 17:53 40.78374 -110.36780 32914 ft 523 kts 105°
2026-04-22 17:53 40.77171 -110.27235 32939 ft 524 kts 106°
2026-04-22 17:54 40.75969 -110.17810 32927 ft 523 kts 105°
2026-04-22 17:54 40.74539 -110.08408 32938 ft 517 kts 113°
2026-04-22 17:55 40.72461 -110.01053 32970 ft 510 kts 124°
2026-04-22 17:55 40.68496 -109.91538 32982 ft 498 kts 129°
2026-04-22 17:56 40.64853 -109.83705 32994 ft 503 kts 130°
2026-04-22 17:56 40.61145 -109.75823 33001 ft 501 kts 130°
2026-04-22 17:57 40.57477 -109.67938 33011 ft 498 kts 130°
2026-04-22 17:57 40.53840 -109.60081 33001 ft 502 kts 130°
2026-04-22 17:58 40.50193 -109.52207 32975 ft 505 kts 130°
2026-04-22 17:58 40.46534 -109.44315 32972 ft 502 kts 130°
2026-04-22 17:59 40.42859 -109.36411 32976 ft 508 kts 130°
2026-04-22 17:59 40.39177 -109.28506 32996 ft 507 kts 131°
2026-04-22 18:00 40.36069 -109.21921 33008 ft 507 kts 133°
2026-04-22 18:00 40.31440 -109.13148 33003 ft 504 kts 136°
2026-04-22 18:01 40.27323 -109.05747 33001 ft 502 kts 136°
2026-04-22 18:01 40.23184 -108.98327 32996 ft 504 kts 136°
2026-04-22 18:02 40.19047 -108.90840 32997 ft 509 kts 135°
2026-04-22 18:02 40.14948 -108.83353 33007 ft 508 kts 135°
2026-04-22 18:03 40.10842 -108.75845 33019 ft 503 kts 136°
2026-04-22 18:03 40.06737 -108.68375 33027 ft 508 kts 135°
2026-04-22 18:04 40.02647 -108.60924 33032 ft 507 kts 135°
2026-04-22 18:04 39.98514 -108.53426 33048 ft 509 kts 135°
2026-04-22 18:05 39.94345 -108.45897 33050 ft 510 kts 135°
2026-04-22 18:05 39.90198 -108.38414 33070 ft 510 kts 135°
2026-04-22 18:06 39.86033 -108.30902 33077 ft 509 kts 135°
2026-04-22 18:06 39.82040 -108.23275 33076 ft 507 kts 128°
2026-04-22 18:06 39.80583 -108.19066 33083 ft 503 kts 116°
2026-04-22 18:07 39.79992 -108.16186 33013 ft 502 kts 107°
2026-04-22 18:07 39.79587 -108.10175 32597 ft 501 kts 94°
2026-04-22 18:07 39.79779 -108.05610 32150 ft 500 kts 86°
2026-04-22 18:07 39.80473 -108.01214 31628 ft 502 kts 75°
2026-04-22 18:08 39.81624 -107.96926 31100 ft 500 kts 70°
2026-04-22 18:08 39.82971 -107.92771 30542 ft 498 kts 68°
2026-04-22 18:08 39.84422 -107.88663 29983 ft 495 kts 66°
2026-04-22 18:08 39.85900 -107.84577 29434 ft 493 kts 66°
2026-04-22 18:09 39.87340 -107.80537 28895 ft 489 kts 65°
2026-04-22 18:09 39.88749 -107.76515 28349 ft 487 kts 68°
2026-04-22 18:09 39.90121 -107.72518 27807 ft 483 kts 67°
2026-04-22 18:09 39.91461 -107.68549 27289 ft 480 kts 67°
2026-04-22 18:10 39.92785 -107.64565 26760 ft 477 kts 69°
2026-04-22 18:10 39.94086 -107.60633 26213 ft 473 kts 68°
2026-04-22 18:10 39.95388 -107.56688 25693 ft 469 kts 68°
2026-04-22 18:10 39.96652 -107.52834 25171 ft 466 kts 68°
2026-04-22 18:11 39.97934 -107.48937 24626 ft 463 kts 68°
2026-04-22 18:11 39.99189 -107.45122 24105 ft 458 kts 69°
2026-04-22 18:11 40.00429 -107.41351 23587 ft 454 kts 68°
2026-04-22 18:11 40.01633 -107.37537 23077 ft 449 kts 71°
2026-04-22 18:12 40.02604 -107.33684 22537 ft 444 kts 79°
2026-04-22 18:12 40.03294 -107.29823 22034 ft 437 kts 84°
2026-04-22 18:12 40.03653 -107.27239 21715 ft 433 kts 85°
2026-04-22 18:12 40.04242 -107.22110 21042 ft 427 kts 86°
2026-04-22 18:13 40.04634 -107.18280 20536 ft 423 kts 87°
2026-04-22 18:13 40.05006 -107.14510 20046 ft 419 kts 88°
2026-04-22 18:13 40.05380 -107.10747 19550 ft 416 kts 87°
2026-04-22 18:13 40.05755 -107.07035 19065 ft 413 kts 88°
2026-04-22 18:14 40.06139 -107.03333 18564 ft 410 kts 88°
2026-04-22 18:14 40.06520 -106.99700 18092 ft 406 kts 88°
2026-04-22 18:14 40.06902 -106.96046 17605 ft 404 kts 87°
2026-04-22 18:14 40.07278 -106.92445 17133 ft 400 kts 87°
2026-04-22 18:15 40.07652 -106.88878 16658 ft 396 kts 87°
2026-04-22 18:15 40.08015 -106.85320 16284 ft 389 kts 88°
2026-04-22 18:15 40.08221 -106.81883 16163 ft 372 kts 94°
2026-04-22 18:15 40.08161 -106.78553 16139 ft 352 kts 101°
2026-04-22 18:16 40.07917 -106.75479 16147 ft 334 kts 104°
2026-04-22 18:16 40.07598 -106.72527 16136 ft 323 kts 106°
2026-04-22 18:16 40.07255 -106.69629 16134 ft 323 kts 105°
2026-04-22 18:16 40.06926 -106.66763 16138 ft 325 kts 105°
2026-04-22 18:17 40.06488 -106.63881 16146 ft 316 kts 112°
2026-04-22 18:17 40.05656 -106.61329 16151 ft 296 kts 135°
2026-04-22 18:17 40.04213 -106.59663 16166 ft 261 kts 163°
2026-04-22 18:17 40.02581 -106.59005 16174 ft 242 kts 180°
2026-04-22 18:18 40.00964 -106.58866 16175 ft 225 kts 188°
2026-04-22 18:18 39.99397 -106.59011 16182 ft 224 kts 194°
2026-04-22 18:18 39.97836 -106.59307 16185 ft 228 kts 194°
2026-04-22 18:18 39.96253 -106.59596 16184 ft 229 kts 194°
2026-04-22 18:19 39.94680 -106.59855 16189 ft 229 kts 193°
2026-04-22 18:19 39.93088 -106.60109 16186 ft 226 kts 194°
2026-04-22 18:19 39.91535 -106.60356 16029 ft 227 kts 193°
2026-04-22 18:19 39.89967 -106.60611 15724 ft 226 kts 194°
2026-04-22 18:20 39.88411 -106.60866 15473 ft 221 kts 193°
2026-04-22 18:20 39.86935 -106.61105 15367 ft 210 kts 194°
2026-04-22 18:20 39.85519 -106.61330 15333 ft 195 kts 194°
2026-04-22 18:20 39.84215 -106.61540 15267 ft 184 kts 195°
2026-04-22 18:21 39.82957 -106.61754 15200 ft 181 kts 194°
2026-04-22 18:21 39.81699 -106.61957 15024 ft 186 kts 194°
2026-04-22 18:21 39.80417 -106.62161 14778 ft 183 kts 195°
2026-04-22 18:21 39.79160 -106.62366 14563 ft 183 kts 194°
2026-04-22 18:22 39.77890 -106.62572 14348 ft 183 kts 194°
2026-04-22 18:22 39.76620 -106.62775 13932 ft 189 kts 194°
2026-04-22 18:22 39.75285 -106.62996 13485 ft 195 kts 193°
2026-04-22 18:22 39.73945 -106.63216 13077 ft 198 kts 193°
2026-04-22 18:23 39.72560 -106.63442 12639 ft 201 kts 193°
2026-04-22 18:23 39.71162 -106.63669 12195 ft 201 kts 194°
2026-04-22 18:23 39.69832 -106.64125 11730 ft 195 kts 212°
2026-04-22 18:24 39.68138 -106.66612 11180 ft 178 kts 233°
2026-04-22 18:24 39.67419 -106.67851 10992 ft 168 kts 232°
2026-04-22 18:24 39.66487 -106.70479 10523 ft 167 kts 261°
2026-04-22 18:25 39.66422 -106.71993 10173 ft 171 kts 259°
2026-04-22 18:25 39.66259 -106.73507 9926 ft 166 kts 256°
2026-04-22 18:25 39.66093 -106.74969 9597 ft 164 kts 257°
2026-04-22 18:26 39.65772 -106.77831 9027 ft 157 kts 257°
2026-04-22 18:26 39.65624 -106.79201 8875 ft 157 kts 257°
2026-04-22 18:26 39.65474 -106.80651 8544 ft 163 kts 257°
2026-04-22 18:26 39.65320 -106.82071 8214 ft 158 kts 258°
2026-04-22 18:27 39.65188 -106.83494 7876 ft 159 kts 256°
2026-04-22 18:27 39.65036 -106.84902 7610 ft 156 kts 255°
2026-04-22 18:27 39.64867 -106.86284 7259 ft 153 kts 256°
2026-04-22 18:27 39.64732 -106.87636 7012 ft 151 kts 256°
2026-04-22 18:28 39.64575 -106.88937 6817 ft 146 kts 256°
2026-04-22 18:28 39.64429 -106.90248 6636 ft 144 kts 256°
2026-04-22 18:28 39.64291 -106.91411 6595 ft 103 kts 261°
2026-04-22 18:28 39.64232 -106.92018 6595 ft 46 kts 262°
2026-04-22 18:29 39.64159 -106.92279 6595 ft 14 kts 181°
2026-04-22 18:29 39.64110 -106.92255 6595 ft 6 kts 127°
2026-04-22 18:29 39.64107 -106.92136 6595 ft 18 kts 81°
2026-04-22 18:29 39.64125 -106.91976 6595 ft 17 kts 82°
2026-04-22 18:30 39.64142 -106.91818 6595 ft 17 kts 82°
2026-04-22 18:30 39.64150 -106.91573 6595 ft 7 kts 140°
2026-04-22 18:30 39.64113 -106.91552 6595 ft 4 kts 166°
2026-04-22 18:31 39.64092 -106.91546 6595 ft 2 kts 169°
2026-04-22 18:31 39.64079 -106.91544 6596 ft 2 kts 172°
2026-04-22 18:31 39.64064 -106.91541 6596 ft 1 kts 172°
2026-04-22 18:31 39.64056 -106.91539 6596 ft 0 kts 173°